STARLINK-34094, 63822

Orbit data source: Space-Track

STARLINK-34094, 63822 is a payload satellite owned by SpaceX/Seattle (US) in LEO that was launched on Sun, 04 May 2025 UTC via an FALCON 9 launch vehicle from the Air Force Eastern Test Range (AFETR). Payload-class satellites include a variety of spacecraft equipped with specific instruments for various scientific and technological missions. These include communications satellites like Starlink; space stations such as the ISS; scientific satellites like the Hubble; Earth observation satellites from companies like Planet Labs, Umbra, and HawkEye 360; GPS; miniature CubeSats for education and research; and military/defense satellites.

Loading next visibility...
Identifier
63822, 2025-092U
Orbit
LEO
Country
Flag of USUS
Related business
Manufacturer
SpaceX/Seattle
Mission
Operational Commercial Communications
Bus & Motor
STARLINK V2MO, Unknown motor
Mass
575 kg wet, ~530 kg dry
Launch date (UTC)
2025-05-04 (4 months ago)
Launch vehicle
FALCON 9
Launch site
Air Force Eastern Test Range (AFETR)
Object type
Payload
Rocket body
Debris
Shape & HBR
Box + 1 Pan, 14.5 m
Radar Cross Section
41.120 m², Large (>1 m²)

Expand to show TLE details & history
Last TLE update: 13 hours ago

TLE from 13 hours ago
0 STARLINK-34094
1 63822U 25092U   25259.97225175  .00036911  00000-0  13437-2 0  9990
2 63822  42.9990  70.3864 0000514 258.3506 101.7288 15.27590719 22134
Epoch: 2025-09-16T23:20Z
TLE epoch observation values (Epoch: 2025-09-16T23:20:02.551Z)
Latitude
-0°
Longitude
84.22088°
Altitude
482.864 km
Speed
7.626 km/s
True Right ascension
04h 41m 32s
True Declination
0° 00' 00"
Sunlit
Object was in daylight at epoch
Visualization orbit readout
Latitude
Unknown
Longitude
Unknown
Altitude
Unknown
Speed
Unknown
Apparent Right ascension
Unknown
Apparent Declination
Unknown
Sunlit
N/A
Visualization observer readout
Local Sidereal Time
05:34:16
Azimuth
Unknown
Elevation
Unknown
Doppler factor
Unknown
Orbital elements
Apogee altitude
485.315 km
Perigee altitude
484.61 km
Semi-major axis
6,863.099 km
Eccentricity
0.00005
Inclination
42.999°
RAAN
70.3864°
Arg. of periapsis
258.3506°
True anomaly
101.73457°
Mean anomaly
101.7288°
Eccentric anomaly
101.73168°
Mean motion
3.81736 °/min
Orbital period
94.31 mins
BSTAR
0.0013437
Loading maneuver chart data...
Computing Atmospheric mass density...
Loading historical data...
Loading historical data...
Loading historical data...
Loading historical data...
Loading historical data...
Loading historical data...
Loading historical data...

Documentation

Showing up to 5 results
|